| time (UTC) | temp F | wind direction | speed MPH | gust MPH | rain 1hr in | rain 24hr in | rain mn in | humidity % | barometer mb |
| 20260902133002 | 62 | 68 | 0.0 | 0.0 | 0.00 | 0.19 | 0.05 | 99 | 1020.5 |
| 20260902131602 | 62 | 106 | 0.0 | 0.0 | 0.00 | 0.19 | 0.05 | 99 | 1020.1 |
| 20260902130002 | 62 | 348 | 0.0 | 0.0 | 0.00 | 0.24 | 0.05 | 99 | 1020.0 |
| 20260902124503 | 62 | 348 | 0.0 | 0.0 | 0.01 | 0.24 | 0.05 | 99 | 1019.8 |
| 20260902123103 | 62 | 341 | 0.0 | 0.0 | 0.01 | 0.24 | 0.05 | 99 | 1019.6 |
| 20260902121602 | 62 | 61 | 0.0 | 0.0 | 0.01 | 0.24 | 0.05 | 99 | 1019.5 |
| 20260902120003 | 61 | 49 | 0.0 | 0.0 | 0.01 | 0.27 | 0.05 | 99 | 1019.4 |
| 20260902114502 | 61 | 49 | 0.0 | 0.0 | 0.00 | 0.26 | 0.04 | 99 | 1019.5 |
| 20260902113110 | 61 | 40 | 0.0 | 0.0 | 0.00 | 0.26 | 0.04 | 99 | 1019.6 |
| 20260902111504 | 62 | 37 | 0.0 | 0.0 | 0.01 | 0.26 | 0.04 | 99 | 1019.7 |
| 20260902104603 | 62 | 39 | 0.0 | 0.0 | 0.02 | 0.27 | 0.04 | 99 | 1019.6 |
| 20260902103002 | 62 | 40 | 0.0 | 0.0 | 0.02 | 0.27 | 0.04 | 99 | 1019.5 |
| 20260902101602 | 62 | 40 | 0.0 | 0.0 | 0.01 | 0.26 | 0.03 | 99 | 1019.4 |
| 20260902100002 | 62 | 38 | 0.0 | 0.0 | 0.00 | 0.25 | 0.02 | 99 | 1019.1 |
| 20260902094602 | 62 | 30 | 0.0 | 0.0 | 0.00 | 0.25 | 0.02 | 99 | 1019.0 |
| 20260902093002 | 62 | 30 | 0.0 | 0.0 | 0.00 | 0.25 | 0.02 | 99 | 1018.9 |
| 20260902091605 | 62 | 30 | 0.0 | 0.0 | 0.00 | 0.25 | 0.02 | 99 | 1018.6 |
| 20260902090002 | 62 | 29 | 0.0 | 0.0 | 0.00 | 0.25 | 0.02 | 99 | 1018.4 |
| 20260902084506 | 62 | 29 | 0.0 | 0.0 | 0.00 | 0.25 | 0.02 | 99 | 1018.6 |
| 20260902083105 | 62 | 29 | 0.0 | 0.0 | 0.00 | 0.25 | 0.02 | 99 | 1018.5 |
| 20260902074502 | 62 | 28 | 0.0 | 0.0 | 0.00 | 0.25 | 0.02 | 99 | 1018.3 |
| 20260902073105 | 62 | 25 | 0.0 | 0.0 | 0.01 | 0.25 | 0.02 | 99 | 1018.4 |
| 20260902071603 | 62 | 67 | 0.0 | 0.0 | 0.01 | 0.25 | 0.02 | 98 | 1018.3 |
| 20260902070103 | 62 | 30 | 0.0 | 0.0 | 0.01 | 0.25 | 0.02 | 98 | 1018.4 |
| 20260902064604 | 62 | 28 | 0.0 | 0.0 | 0.01 | 0.26 | 0.02 | 99 | 1018.4 |
| 20260902063006 | 63 | 11 | 0.0 | 0.0 | 0.00 | 0.25 | 0.01 | 99 | 1018.5 |
| 20260902060126 | 63 | 5 | 0.0 | 0.0 | 0.01 | 0.25 | 0.01 | 98 | 1018.5 |
| 20260902054511 | 63 | 5 | 0.0 | 0.0 | 0.01 | 0.25 | 0.01 | 98 | 1018.4 |
| 20260902053106 | 63 | 5 | 0.0 | 0.0 | 0.01 | 0.25 | 0.01 | 98 | 1018.4 |
| 20260902051503 | 63 | 5 | 0.0 | 0.0 | 0.00 | 0.24 | 0.00 | 98 | 1018.4 |
| 20260902050104 | 63 | 24 | 0.0 | 0.0 | 0.00 | 0.24 | 0.00 | 98 | 1018.2 |
| 20260902044610 | 63 | 63 | 0.0 | 0.0 | 0.00 | 0.30 | 0.00 | 98 | 1018.0 |
| 20260902043002 | 63 | 49 | 0.0 | 0.0 | 0.00 | 0.30 | 0.00 | 98 | 1017.7 |
| 20260902041505 | 64 | 33 | 0.0 | 0.0 | 0.00 | 0.30 | 0.00 | 98 | 1017.6 |
| 20260902040107 | 64 | 331 | 0.0 | 0.0 | 0.00 | 0.30 | 0.00 | 98 | 1017.6 |
| 20260902034615 | 64 | 85 | 0.0 | 0.0 | 0.00 | 0.31 | 0.30 | 98 | 1017.6 |
| 20260902033006 | 64 | 36 | 0.0 | 0.0 | 0.00 | 0.31 | 0.30 | 98 | 1017.2 |
| 20260902031605 | 65 | 57 | 0.0 | 0.0 | 0.00 | 0.31 | 0.30 | 98 | 1016.9 |
| 20260902030106 | 66 | 88 | 0.0 | 0.0 | 0.00 | 0.31 | 0.30 | 98 | 1016.7 |
| 20260902024602 | 66 | 90 | 0.0 | 0.0 | 0.01 | 0.31 | 0.30 | 98 | 1016.6 |
| 20260902023005 | 67 | 112 | 0.0 | 0.0 | 0.01 | 0.31 | 0.30 | 98 | 1016.5 |
| 20260902021505 | 67 | 89 | 0.0 | 3.0 | 0.02 | 0.31 | 0.30 | 98 | 1016.4 |
| 20260902020001 | 67 | 15 | 0.0 | 0.0 | 0.02 | 0.32 | 0.30 | 98 | 1016.5 |
| 20260902014502 | 68 | 58 | 0.0 | 1.0 | 0.01 | 0.31 | 0.28 | 98 | 1016.5 |
| 20260902013102 | 68 | 51 | 0.0 | 1.0 | 0.01 | 0.31 | 0.28 | 98 | 1016.4 |
| 20260902011504 | 68 | 42 | 0.0 | 1.0 | 0.00 | 0.30 | 0.28 | 98 | 1016.5 |
| 20260902010104 | 68 | 50 | 0.0 | 0.0 | 0.00 | 0.30 | 0.28 | 98 | 1016.0 |
| 20260902004603 | 68 | 52 | 0.0 | 3.0 | 0.00 | 0.30 | 0.28 | 98 | 1015.7 |
| 20260902003010 | 68 | 104 | 0.0 | 3.0 | 0.00 | 0.30 | 0.28 | 97 | 1015.3 |
| 20260902001606 | 69 | 22 | 0.0 | 3.0 | 0.00 | 0.30 | 0.28 | 97 | 1015.2 |
| 20260902000004 | 69 | 52 | 0.0 | 5.0 | 0.00 | 0.30 | 0.28 | 97 | 1015.0 |
| 20260901234502 | 69 | 46 | 0.0 | 4.0 | 0.00 | 0.30 | 0.28 | 97 | 1014.8 |
| 20260901233103 | 69 | 38 | 0.0 | 4.0 | 0.00 | 0.30 | 0.28 | 97 | 1014.8 |
| 20260901231605 | 69 | 65 | 0.0 | 6.0 | 0.00 | 0.30 | 0.28 | 97 | 1014.7 |
| 20260901230007 | 70 | 66 | 0.0 | 2.0 | 0.00 | 0.30 | 0.28 | 97 | 1015.1 |
| 20260901224507 | 70 | 85 | 0.0 | 4.0 | 0.00 | 0.30 | 0.28 | 97 | 1015.0 |
| 20260901223103 | 70 | 84 | 0.0 | 4.0 | 0.00 | 0.30 | 0.28 | 97 | 1014.5 |
| 20260901221616 | 70 | 72 | 0.0 | 1.0 | 0.00 | 0.30 | 0.28 | 96 | 1014.6 |
| 20260901220007 | 70 | 113 | 0.0 | 6.0 | 0.00 | 0.30 | 0.28 | 96 | 1014.5 |
| 20260901214502 | 71 | 18 | 0.0 | 3.0 | 0.01 | 0.30 | 0.28 | 96 | 1014.3 |
| 20260901213104 | 71 | 36 | 0.0 | 3.0 | 0.02 | 0.30 | 0.28 | 96 | 1014.2 |
| 20260901211522 | 72 | 13 | 2.0 | 7.0 | 0.02 | 0.30 | 0.28 | 95 | 1014.1 |
| 20260901210131 | 72 | 20 | 1.0 | 6.0 | 0.02 | 0.30 | 0.28 | 94 | 1014.0 |
| 20260901204601 | 74 | 32 | 0.0 | 8.0 | 0.01 | 0.28 | 0.27 | 93 | 1013.7 |
| 20260901203003 | 75 | 32 | 2.0 | 7.0 | 0.00 | 0.28 | 0.26 | 92 | 1013.5 |
| 20260901201604 | 76 | 31 | 2.0 | 5.0 | 0.00 | 0.28 | 0.26 | 91 | 1013.5 |
| 20260901194606 | 77 | 42 | 0.0 | 6.0 | 0.00 | 0.28 | 0.26 | 90 | 1013.5 |
| 20260901193005 | 77 | 78 | 2.0 | 8.0 | 0.00 | 0.28 | 0.26 | 89 | 1013.3 |
| 20260901191615 | 77 | 51 | 0.0 | 2.0 | 0.00 | 0.28 | 0.26 | 90 | 1013.3 |
| 20260901190006 | 78 | 76 | 0.0 | 1.0 | 0.00 | 0.28 | 0.26 | 87 | 1013.1 |
| 20260901184505 | 79 | 76 | 1.0 | 4.0 | 0.00 | 0.28 | 0.26 | 84 | 1013.2 |
| 20260901183003 | 80 | 244 | 1.0 | 4.0 | 0.00 | 0.28 | 0.26 | 82 | 1013.0 |
| 20260901181504 | 79 | 194 | 0.0 | 2.0 | 0.00 | 0.28 | 0.26 | 86 | 1013.0 |
| 20260901174603 | 78 | 149 | 0.0 | 3.0 | 0.00 | 0.28 | 0.26 | 87 | 1013.1 |
| 20260901173106 | 77 | 161 | 0.0 | 6.0 | 0.00 | 0.28 | 0.26 | 91 | 1013.1 |
| 20260901171507 | 76 | 142 | 0.0 | 5.0 | 0.00 | 0.28 | 0.26 | 94 | 1013.2 |
| 20260901170107 | 75 | 238 | 0.0 | 1.0 | 0.00 | 0.28 | 0.26 | 96 | 1013.2 |
| 20260901164618 | 74 | 290 | 0.0 | 3.0 | 0.00 | 0.28 | 0.26 | 98 | 1013.4 |
| 20260901163035 | 73 | 151 | 0.0 | 4.0 | 0.00 | 0.28 | 0.26 | 98 | 1013.7 |
| 20260901161605 | 73 | 195 | 0.0 | 0.0 | 0.00 | 0.28 | 0.26 | 99 | 1013.9 |
| 20260901160007 | 72 | 177 | 0.0 | 2.0 | 0.00 | 0.28 | 0.26 | 99 | 1014.0 |
| 20260901154502 | 71 | 240 | 0.0 | 0.0 | 0.00 | 0.28 | 0.26 | 99 | 1014.4 |
| 20260901153103 | 70 | 236 | 0.0 | 0.0 | 0.00 | 0.28 | 0.26 | 99 | 1014.6 |
| 20260901151504 | 70 | 236 | 0.0 | 0.0 | 0.00 | 0.28 | 0.26 | 99 | 1014.9 |
| 20260901150104 | 70 | 236 | 0.0 | 0.0 | 0.00 | 0.28 | 0.26 | 99 | 1015.0 |
| 20260901144602 | 70 | 236 | 0.0 | 0.0 | 0.01 | 0.28 | 0.26 | 99 | 1014.7 |
| 20260901143003 | 69 | 236 | 0.0 | 0.0 | 0.02 | 0.28 | 0.26 | 99 | 1014.5 |
| 20260901141602 | 69 | 236 | 0.0 | 0.0 | 0.02 | 0.28 | 0.26 | 99 | 1014.8 |
| 20260901140021 | 68 | 236 | 0.0 | 0.0 | 0.10 | 0.28 | 0.26 | 99 | 1014.7 |
| 20260901134501 | 67 | 236 | 0.0 | 0.0 | 0.10 | 0.27 | 0.25 | 99 | 1014.7 |
| 20260901133109 | 67 | 236 | 0.0 | 0.0 | 0.10 | 0.26 | 0.24 | 99 | 1014.9 |